Gainesville, FL

5:01 PM EDT on August 22, 2017 (GMT -0400)
Gainesville Regional

Weather History for KGNV - December, 2014

Change the Weather History Date:

Saturday, December 13, 2014

  Actual Average Record
Temperature  
Mean Temperature 49 °F 56 °F  
Max Temperature 68 °F 68 °F 85 °F (1948)
Min Temperature 29 °F 45 °F 13 °F (1962)
Degree Days  
Heating Degree Days 16 9  
Month to date heating degree days 101 106  
Since 1 July heating degree days 366 267  
Cooling Degree Days 0 1  
Month to date cooling degree days 20 13  
Year to date cooling degree days 2583 2629  
Moisture  
Dew Point 33 °F    
Average Humidity 62    
Maximum Humidity 100    
Minimum Humidity 24    
Precipitation  
Precipitation 0.00 in 0.08 in 1.67 in (1963)
Month to date precipitation 0.03 0.98  
Year to date precipitation 48.39 45.91  
Snow  
Snow 0.00 in 0.00 in 0.00 in ()
Month to date snowfall 0.0 0.0  
Since 1 July snowfall 0.0 0.0  
Snow Depth 0.00 in    
Sea Level Pressure  
Sea Level Pressure 30.17 in    
Wind  
Wind Speed 3 mph (WNW)    
Max Wind Speed 10 mph    
Max Gust Speed 13 mph    
Visibility 10 miles    
Events      
T = Trace of Precipitation, MM = Missing Value Source: NWS Daily Summary

Daily Weather History Graph

Daily Weather History Graph

Search for Another Location

Airport or City:

Trip Planner

Search our weather history database for the weather conditions in past years. The results will help you decide how hot, cold, wet, or windy it might be!

Date:

Astronomy

Dec. 13, 2014 Rise Set
Actual Time 7:15 AM EST 5:31 PM EST
Civil Twilight 6:49 AM EST 5:57 PM EST
Nautical Twilight 6:19 AM EST 6:27 PM EST
Astronomical Twilight 5:50 AM EST 6:56 PM EST
Moon No Moon Rise 12:00 PM EST (12/13)
Length of Visible Light 11h 08m
Length of Day
10h 15m
Waning Gibbous, 58% of the Moon is Illuminated
Dec 13
Waning Gibbous
Dec 14
Last Quarter
Dec 21
New
Dec 28
First Quarter
Jan 4
Full

Hourly Weather History & Observations

Time (EST) Temp. Windchill Dew Point Humidity Pressure Visibility Wind Dir Wind Speed Gust Speed Precip Events Conditions
12:53 AM 35.1 °F - 33.1 °F 92% 30.22 in 10.0 mi Calm Calm - N/A   Clear
1:53 AM 34.0 °F - 32.0 °F 92% 30.22 in 10.0 mi Calm Calm - N/A   Clear
2:53 AM 32.0 °F - 30.9 °F 96% 30.21 in 10.0 mi Calm Calm - N/A   Clear
3:53 AM 30.0 °F 26.5 °F 28.9 °F 96% 30.20 in 10.0 mi West 3.5 mph - N/A   Clear
4:53 AM 30.0 °F - 28.9 °F 96% 30.19 in 10.0 mi Calm Calm - N/A   Clear
5:53 AM 30.0 °F 26.5 °F 30.0 °F 100% 30.20 in 10.0 mi West 3.5 mph - N/A   Clear
6:53 AM 30.0 °F - 28.9 °F 96% 30.21 in 10.0 mi Calm Calm - N/A   Clear
7:53 AM 33.1 °F - 32.0 °F 96% 30.22 in 10.0 mi Calm Calm - N/A   Clear
8:53 AM 45.0 °F - 37.9 °F 76% 30.23 in 10.0 mi Calm Calm - N/A   Clear
9:53 AM 54.0 °F - 35.1 °F 49% 30.24 in 10.0 mi Calm Calm - N/A   Clear
10:53 AM 61.0 °F - 32.0 °F 34% 30.23 in 10.0 mi NNE 4.6 mph - N/A   Clear
11:53 AM 64.9 °F - 30.9 °F 28% 30.20 in 10.0 mi Calm Calm - N/A   Clear
12:53 PM 66.0 °F - 28.9 °F 25% 30.17 in 10.0 mi North 8.1 mph - N/A   Clear
1:53 PM 66.9 °F - 30.0 °F 25% 30.13 in 10.0 mi Variable 4.6 mph - N/A   Clear
2:53 PM 66.9 °F - 30.9 °F 26% 30.12 in 10.0 mi WSW 4.6 mph - N/A   Clear
3:53 PM 66.9 °F - 32.0 °F 27% 30.12 in 10.0 mi NW 8.1 mph - N/A   Clear
4:53 PM 64.0 °F - 33.1 °F 31% 30.11 in 10.0 mi WNW 4.6 mph - N/A   Clear
5:53 PM 54.0 °F - 39.0 °F 57% 30.12 in 10.0 mi West 3.5 mph - N/A   Clear
6:53 PM 46.0 °F - 39.0 °F 76% 30.12 in 10.0 mi Calm Calm - N/A   Clear
7:53 PM 42.1 °F 40.2 °F 37.0 °F 82% 30.13 in 10.0 mi WNW 3.5 mph - N/A   Clear
8:53 PM 39.9 °F - 36.0 °F 86% 30.13 in 10.0 mi Calm Calm - N/A   Clear
9:53 PM 39.0 °F - 35.1 °F 86% 30.14 in 10.0 mi Calm Calm - N/A   Clear
10:53 PM 37.0 °F 32.4 °F 34.0 °F 89% 30.14 in 10.0 mi WNW 5.8 mph - N/A   Clear
11:53 PM 36.0 °F 31.1 °F 34.0 °F 93% 30.13 in 10.0 mi WNW 5.8 mph - N/A   Clear